DELTA 1 DEB, 42561

Orbit data source: Space-Track

DELTA 1 DEB, 42561 is space debris in SSO originally from a launch on Sun, 23 Jul 1972 UTC launched from the Air Force Western Test Range (AFWTR). Debris objects in space refer to the collection of defunct objects orbiting the Earth. Examples of debris include non-operational satellites, rocket bodies, and fragments generated from explosions, collisions, or faulty payload assembly.

Loading next visibility...
Identifier
42561, 1972-058JU
Orbit
SSO
Country
Flag of USUS
Related business
Manufacturer
Unknown
Mission
Spacecraft
Bus & Motor
Unknown
Mass
Unknown
Launch date (UTC)
1972-07-23 (54 years ago)
Launch vehicle
Unknown
Launch site
Air Force Western Test Range (AFWTR)
Object type
Payload
Rocket body
Debris
Shape & HBR
Unknown shape, 0.1 m
Radar Cross Section
Medium (>0.1 m² and <1 m²)

Expand to show TLE details & history
Last TLE update: 1 day ago

TLE from 1 day ago
0 DELTA 1 DEB
1 42561U 72058JU  26149.37198568  .00001109  00000-0  19184-2 0  9995
2 42561  98.9032 296.2385 0475282 121.2558 273.1122 13.08737254596387
Epoch: 2026-05-29T08:55Z
TLE epoch observation values (Epoch: 2026-05-29T08:55:39.562Z)
Latitude
28.5828°
Longitude
-89.451°
Altitude
1,229.001 km
Speed
7.244 km/s
True Right ascension
19h 25m 28s
True Declination
28° 26' 51"
Sunlit
Object was in daylight at epoch
Visualization orbit readout
Latitude
Unknown
Longitude
Unknown
Altitude
Unknown
Speed
Unknown
Apparent Right ascension
Unknown
Apparent Declination
Unknown
Sunlit
N/A
Visualization observer readout
Local Sidereal Time
01:13:39
Azimuth
Unknown
Elevation
Unknown
Doppler factor
Unknown
Orbital elements
Apogee altitude
1,586.737 km
Perigee altitude
863.976 km
Semi-major axis
7,603.494 km
Eccentricity
0.04753
Inclination
98.9032°
RAAN
296.2385°
Arg. of periapsis
121.2558°
True anomaly
267.66453°
Mean anomaly
273.1122°
Eccentric anomaly
270.3891°
Mean motion
3.27358 °/min
Orbital period
109.97 mins
BSTAR
0.0019184
Loading maneuver chart data...
Computing Atmospheric mass density...
Loading historical data...
Loading historical data...
Loading historical data...
Loading historical data...
Loading historical data...
Loading historical data...
Loading historical data...

Documentation

Showing up to 5 results
|